Dillon, MT

7:19 AM MDT on June 22, 2017 (GMT -0600)
Dillon

Weather History for KDLN - December, 2013

Change the Weather History Date:

Saturday, December 7, 2013

  Actual Average Record
Temperature  
Mean Temperature -15 °F 21 °F  
Max Temperature -9 °F 31 °F 54 °F (1939)
Min Temperature -22 °F 12 °F -24 °F (1972)
Degree Days  
Heating Degree Days 80    
Month to date heating degree days 430  
Since 1 July heating degree days 2359  
Cooling Degree Days 0    
Month to date cooling degree days 0  
Year to date cooling degree days 247  
Moisture  
Dew Point -21 °F    
Average Humidity 74    
Maximum Humidity 86    
Minimum Humidity 62    
Precipitation  
Precipitation T in 0.01 in 0.11 in (1950)
Month to date precipitation 0.08 0.08  
Year to date precipitation 9.89 10.38  
Snow  
Snow 0.00 in - - ()
Snow Depth 1.00 in    
Sea Level Pressure  
Sea Level Pressure 30.21 in    
Wind  
Wind Speed 6 mph (ENE)    
Max Wind Speed 12 mph    
Max Gust Speed 13 mph    
Visibility 6 miles    
Events Snow    
T = Trace of Precipitation, MM = Missing Value Source: NWS Daily Summary

Daily Weather History Graph

Daily Weather History Graph

Search for Another Location

Airport or City:

Trip Planner

Search our weather history database for the weather conditions in past years. The results will help you decide how hot, cold, wet, or windy it might be!

Date:

Astronomy

Dec. 07, 2013 Rise Set
Actual Time 7:55 AM MST 4:47 PM MST
Civil Twilight 7:22 AM MST 5:21 PM MST
Nautical Twilight 6:45 AM MST 5:58 PM MST
Astronomical Twilight 6:09 AM MST 6:34 PM MST
Moon 11:33 AM MST (12/7) 10:45 PM MST (12/7)
Length of Visible Light 9h 59m
Length of Day
8h 51m
Waxing Crescent, 30% of the Moon is Illuminated
Dec 7
Waxing Crescent
Dec 9
First Quarter
Dec 17
Full
Dec 25
Last Quarter
Jan 1
New

Hourly Weather History & Observations

Time (MST) Temp. Windchill Dew Point Humidity Pressure Visibility Wind Dir Wind Speed Gust Speed Precip Events Conditions
12:53 AM -20.0 °F -37.1 °F -24.0 °F 82% 30.49 in 10.0 mi SSW 6.9 mph - N/A   Partly Cloudy
1:53 AM -20.0 °F -30.7 °F -24.0 °F 82% 30.47 in 10.0 mi Variable 3.5 mph - N/A   Clear
2:53 AM -15.0 °F -27.4 °F -20.0 °F 78% 30.44 in 10.0 mi WSW 4.6 mph - N/A   Overcast
3:32 AM -15.0 °F - -20.0 °F 78% 29.99 in 2.0 mi Calm Calm - 0.00 in Snow Light Snow
3:53 AM -15.0 °F -25.0 °F -20.0 °F 78% 30.40 in 2.5 mi NW 3.5 mph - 0.00 in Snow Light Snow
4:01 AM -15.0 °F - -20.0 °F 78% 29.97 in 4.0 mi Calm Calm - 0.00 in Snow Light Snow
4:34 AM -14.1 °F -26.3 °F -20.0 °F 75% 29.96 in 2.0 mi NE 4.6 mph - 0.00 in Snow Light Snow
4:53 AM -14.1 °F -23.9 °F -20.0 °F 75% 30.38 in 2.5 mi NE 3.5 mph - 0.00 in Snow Light Snow
5:22 AM -14.1 °F -29.9 °F -20.0 °F 75% 29.95 in 3.0 mi NNE 6.9 mph - 0.00 in Snow Light Snow
5:53 AM -14.1 °F -31.3 °F -20.0 °F 75% 30.35 in 4.0 mi NE 8.1 mph - 0.00 in Snow Light Snow
6:34 AM -14.1 °F -29.9 °F -18.9 °F 79% 29.93 in 2.5 mi NNE 6.9 mph - 0.00 in Snow Light Snow
6:53 AM -14.1 °F -29.9 °F -18.9 °F 79% 30.36 in 3.0 mi NNE 6.9 mph - 0.00 in Snow Light Snow
7:46 AM -14.1 °F -31.3 °F -20.0 °F 75% 29.93 in 2.5 mi NNE 8.1 mph - 0.00 in Snow Light Snow
7:53 AM -14.1 °F -31.3 °F -18.9 °F 79% 30.37 in 2.5 mi NNE 8.1 mph - 0.00 in Snow Light Snow
8:05 AM -14.1 °F -31.3 °F -18.9 °F 79% 29.93 in 3.0 mi NNE 8.1 mph - 0.00 in Snow Light Snow
8:53 AM -13.0 °F -33.4 °F -18.9 °F 75% 30.38 in 2.5 mi NE 11.5 mph - 0.00 in Snow Light Snow
9:03 AM -13.0 °F -31.3 °F -18.9 °F 75% 29.93 in 3.0 mi NNE 9.2 mph - 0.00 in Snow Light Snow
9:38 AM -13.0 °F -28.6 °F -20.0 °F 71% 29.94 in 2.5 mi NNE 6.9 mph - 0.00 in Snow Light Snow
9:53 AM -13.0 °F -28.6 °F -18.9 °F 75% 30.40 in 3.0 mi NNE 6.9 mph - 0.00 in Snow Light Snow
10:00 AM -13.0 °F -30.0 °F -18.9 °F 75% 29.93 in 2.5 mi NNE 8.1 mph - 0.00 in Snow Light Snow
10:33 AM -11.9 °F -27.3 °F -18.9 °F 71% 29.93 in 3.0 mi NNE 6.9 mph - 0.00 in Snow Light Snow
10:53 AM -11.0 °F -22.8 °F -18.0 °F 71% 30.38 in 4.0 mi NNE 4.6 mph - 0.00 in Snow Light Snow
11:10 AM -11.0 °F - -18.0 °F 71% 29.92 in 2.0 mi Calm Calm - 0.00 in Snow Light Snow
11:45 AM -9.9 °F -19.2 °F -18.0 °F 68% 29.91 in 3.0 mi NNE 3.5 mph - 0.00 in Snow Light Snow
11:53 AM -9.9 °F - -18.0 °F 68% 30.37 in 4.0 mi Calm Calm - 0.00 in Snow Light Snow
12:28 PM -9.9 °F - -18.0 °F 68% 29.89 in 9.0 mi Calm Calm - 0.00 in   Partly Cloudy
12:53 PM -11.0 °F - -18.0 °F 71% 30.34 in 10.0 mi Calm Calm - 0.00 in   Clear
1:53 PM -11.0 °F -22.8 °F -20.0 °F 64% 30.32 in 10.0 mi SE 4.6 mph - N/A   Mostly Cloudy
2:53 PM -9.9 °F -21.5 °F -18.9 °F 65% 30.28 in 10.0 mi SSE 4.6 mph - N/A   Partly Cloudy
3:53 PM -11.0 °F -24.6 °F -18.9 °F 68% 30.31 in 10.0 mi South 5.8 mph - N/A   Scattered Clouds
4:53 PM -15.0 °F -33.7 °F -20.9 °F 75% 30.32 in 10.0 mi South 9.2 mph - N/A   Clear
5:53 PM -15.0 °F -29.3 °F -22.0 °F 71% 30.33 in 10.0 mi South 5.8 mph - N/A   Clear
6:53 PM -17.0 °F -33.4 °F -25.1 °F 67% 30.35 in 10.0 mi South 6.9 mph - N/A   Clear
7:53 PM -20.0 °F -30.7 °F -26.0 °F 74% 30.38 in 10.0 mi SE 3.5 mph - N/A   Clear
8:53 PM -20.0 °F -30.7 °F -27.0 °F 70% 30.38 in 10.0 mi South 3.5 mph - N/A   Clear
9:53 PM -18.0 °F -30.9 °F -25.1 °F 70% 30.38 in 10.0 mi SSW 4.6 mph - N/A   Clear
10:53 PM -18.0 °F -37.5 °F -25.1 °F 70% 30.37 in 10.0 mi South 9.2 mph - N/A   Clear
11:53 PM -18.9 °F -37.2 °F -26.0 °F 70% 30.37 in 10.0 mi South 8.1 mph - N/A   Clear